Tiempo cada hora Abak

Hoy, 26 Octubre, Lunes

Tiempo Temperatura Precipitaciones Viento Presión Humedad
00:00 +24°C° 0 mm 0 mps 753 mmHg 89%
01:00 +24°C° 0 mm 0 mps 753 mmHg 90%
02:00 +24°C° 0 mm 0 mps 753 mmHg 91%
03:00 +24°C° 0 mm 0 mps 752 mmHg 92%
04:00 +24°C° 0 mm 0 mps 752 mmHg 92%
05:00 +24°C° 0 mm 0 mps 752 mmHg 92%
06:00 +24°C° 0 mm 0 mps 753 mmHg 92%
07:00 +24°C° 0 mm 0 mps 753 mmHg 92%
08:00 +25°C° 0 mm 0 mps 753 mmHg 87%
09:00 +26°C° 0 mm 0 mps 753 mmHg 82%
10:00 +27°C° 0 mm 0 mps 754 mmHg 77%
11:00 +29°C° 0.3 mm 0 mps 753 mmHg 72%
12:00 +32°C° 0.3 mm 1 mps 752 mmHg 67%
13:00 +34°C° 0.3 mm 1 mps 752 mmHg 62%
14:00 +33°C° 1.3 mm 1 mps 751 mmHg 66%
15:00 +32°C° 1.3 mm 2 mps 751 mmHg 70%
16:00 +31°C° 1.3 mm 2 mps 750 mmHg 75%
17:00 +29°C° 1.5 mm 2 mps 751 mmHg 80%
18:00 +28°C° 1.5 mm 2 mps 751 mmHg 85%
19:00 +27°C° 1.5 mm 2 mps 751 mmHg 91%
20:00 +27°C° 0.2 mm 1 mps 752 mmHg 91%
21:00 +26°C° 0.2 mm 1 mps 752 mmHg 92%
22:00 +26°C° 0.2 mm 1 mps 753 mmHg 93%
23:00 +26°C° 0.1 mm 1 mps 753 mmHg 93%

Mañana, 27 Octubre, Martes

Tiempo Temperatura Precipitaciones Viento Presión Humedad
00:00 +26°C° 0.1 mm 1 mps 752 mmHg 93%
01:00 +26°C° 0.1 mm 1 mps 752 mmHg 93%
02:00 +24°C° 0 mm 0 mps 752 mmHg 93%
03:00 +24°C° 0 mm 0 mps 752 mmHg 93%
04:00 +24°C° 0 mm 0 mps 751 mmHg 93%
05:00 +24°C° 0 mm 0 mps 752 mmHg 92%
06:00 +24°C° 0 mm 0 mps 752 mmHg 92%
07:00 +24°C° 0 mm 0 mps 753 mmHg 91%
08:00 +26°C° 0.1 mm 0 mps 753 mmHg 83%
09:00 +28°C° 0.1 mm 0 mps 753 mmHg 75%
10:00 +31°C° 0.1 mm 0 mps 754 mmHg 67%
11:00 +33°C° 0.8 mm 1 mps 753 mmHg 67%
12:00 +32°C° 0.8 mm 1 mps 752 mmHg 67%
13:00 +32°C° 0.8 mm 2 mps 752 mmHg 67%
14:00 +32°C° 2.8 mm 2 mps 751 mmHg 71%
15:00 +31°C° 2.8 mm 2 mps 751 mmHg 75%
16:00 +30°C° 2.8 mm 3 mps 750 mmHg 79%
17:00 +29°C° 1.2 mm 3 mps 751 mmHg 83%
18:00 +28°C° 1.2 mm 2 mps 751 mmHg 87%
19:00 +27°C° 1.2 mm 2 mps 752 mmHg 92%
20:00 +26°C° 0.1 mm 2 mps 752 mmHg 93%
21:00 +26°C° 0.1 mm 1 mps 753 mmHg 93%
22:00 +26°C° 0.1 mm 1 mps 754 mmHg 94%
23:00 +26°C° 1.2 mm 1 mps 753 mmHg 95%

Pasado mañana, 28 Octubre, Miércoles

Tiempo Temperatura Precipitaciones Viento Presión Humedad
00:00 +26°C° 1.2 mm 1 mps 753 mmHg 95%
01:00 +24°C° 1.2 mm 0 mps 753 mmHg 95%
02:00 +24°C° 0.4 mm 0 mps 752 mmHg 95%
03:00 +26°C° 0.4 mm 1 mps 752 mmHg 95%
04:00 +26°C° 0.4 mm 1 mps 752 mmHg 95%
05:00 +26°C° 0.2 mm 1 mps 752 mmHg 94%
06:00 +24°C° 0.2 mm 0 mps 753 mmHg 94%
07:00 +24°C° 0.2 mm 0 mps 753 mmHg 93%
08:00 +26°C° 0 mm 0 mps 753 mmHg 86%
09:00 +27°C° 0 mm 0 mps 753 mmHg 80%
10:00 +29°C° 0 mm 0 mps 754 mmHg 73%
11:00 +30°C° 0 mm 0 mps 753 mmHg 67%
12:00 +34°C° 0 mm 1 mps 753 mmHg 61%
13:00 +35°C° 0 mm 1 mps 752 mmHg 54%
14:00 +34°C° 0.6 mm 1 mps 752 mmHg 59%
15:00 +34°C° 0.6 mm 2 mps 751 mmHg 64%
16:00 +32°C° 0.6 mm 2 mps 751 mmHg 69%
17:00 +30°C° 0.3 mm 2 mps 751 mmHg 76%
18:00 +29°C° 0.3 mm 2 mps 752 mmHg 82%
19:00 +27°C° 0.3 mm 2 mps 752 mmHg 88%
20:00 +27°C° 0.1 mm 2 mps 753 mmHg 90%
21:00 +27°C° 0.1 mm 1 mps 753 mmHg 91%
22:00 +26°C° 0.1 mm 1 mps 754 mmHg 92%
23:00 +26°C° 0.5 mm 1 mps 753 mmHg 92%

29 Octubre, Jueves

Tiempo Temperatura Precipitaciones Viento Presión Humedad
00:00 +26°C° 0.5 mm 1 mps 753 mmHg 92%
01:00 +26°C° 0.5 mm 1 mps 753 mmHg 92%
02:00 +26°C° 0 mm 1 mps 753 mmHg 92%
03:00 +26°C° 0 mm 1 mps 752 mmHg 93%
04:00 +26°C° 0 mm 1 mps 752 mmHg 93%
05:00 +24°C° 0 mm 0 mps 752 mmHg 93%
06:00 +24°C° 0 mm 0 mps 753 mmHg 92%
07:00 +24°C° 0 mm 0 mps 753 mmHg 91%
08:00 +26°C° 0 mm 0 mps 754 mmHg 84%
09:00 +28°C° 0 mm 0 mps 754 mmHg 77%
10:00 +31°C° 0 mm 1 mps 754 mmHg 70%
11:00 +31°C° 0.5 mm 1 mps 754 mmHg 69%
12:00 +32°C° 0.5 mm 2 mps 753 mmHg 68%
13:00 +32°C° 0.5 mm 2 mps 753 mmHg 67%
14:00 +32°C° 1.6 mm 2 mps 752 mmHg 69%
15:00 +31°C° 1.6 mm 2 mps 752 mmHg 71%
16:00 +31°C° 1.6 mm 2 mps 751 mmHg 73%
17:00 +30°C° 0.1 mm 2 mps 752 mmHg 78%
18:00 +28°C° 0.1 mm 2 mps 752 mmHg 83%
19:00 +27°C° 0.1 mm 1 mps 753 mmHg 88%
20:00 +27°C° 0.1 mm 1 mps 753 mmHg 89%
21:00 +26°C° 0.1 mm 1 mps 754 mmHg 90%
22:00 +26°C° 0.1 mm 1 mps 754 mmHg 91%
23:00 +26°C° 0 mm 1 mps 754 mmHg 91%

30 Octubre, Viernes

Tiempo Temperatura Precipitaciones Viento Presión Humedad
00:00 +26°C° 0 mm 1 mps 754 mmHg 92%
01:00 +26°C° 0 mm 1 mps 753 mmHg 92%
02:00 +26°C° 0 mm 1 mps 753 mmHg 93%
03:00 +25°C° 0 mm 1 mps 753 mmHg 94%
04:00 +23°C° 0 mm 0 mps 752 mmHg 95%
05:00 +23°C° 0 mm 0 mps 753 mmHg 93%
06:00 +24°C° 0 mm 0 mps 753 mmHg 92%
07:00 +24°C° 0 mm 0 mps 754 mmHg 91%
08:00 +26°C° 0 mm 0 mps 754 mmHg 82%
09:00 +30°C° 0 mm 1 mps 754 mmHg 73%
10:00 +32°C° 0 mm 1 mps 755 mmHg 65%
11:00 +33°C° 0.1 mm 1 mps 754 mmHg 63%
12:00 +33°C° 0.1 mm 1 mps 753 mmHg 61%
13:00 +33°C° 0.1 mm 1 mps 753 mmHg 60%
14:00 +33°C° 0.6 mm 1 mps 752 mmHg 62%
15:00 +32°C° 0.6 mm 2 mps 752 mmHg 65%
16:00 +32°C° 0.6 mm 2 mps 751 mmHg 68%
17:00 +30°C° 0.8 mm 2 mps 751 mmHg 75%
18:00 +29°C° 0.8 mm 2 mps 752 mmHg 81%
19:00 +27°C° 0.8 mm 2 mps 752 mmHg 88%
20:00 +27°C° 0.7 mm 2 mps 753 mmHg 90%
21:00 +26°C° 0.7 mm 1 mps 753 mmHg 91%
22:00 +26°C° 0.7 mm 1 mps 754 mmHg 93%
23:00 +26°C° 0.2 mm 1 mps 754 mmHg 93%

31 Octubre, Sábado

Tiempo Temperatura Precipitaciones Viento Presión Humedad
00:00 +26°C° 0.2 mm 1 mps 753 mmHg 93%
01:00 +26°C° 0.2 mm 1 mps 753 mmHg 93%
02:00 +26°C° 0.1 mm 1 mps 753 mmHg 94%
03:00 +25°C° 0.1 mm 1 mps 753 mmHg 94%
04:00 +23°C° 0.1 mm 0 mps 752 mmHg 95%
05:00 +23°C° 0 mm 0 mps 753 mmHg 94%
06:00 +24°C° 0 mm 0 mps 753 mmHg 93%
07:00 +24°C° 0 mm 0 mps 753 mmHg 92%
Mostrar más

Necesitamos Su Consentimiento

Meteoprog y nuestros Proveedores de Servicios pueden almacenar y acceder a sus datos personales como cookies, identificadores de dispositivo u otras tecnologías similares de su dispositivo y procesar dichos datos para personalizar contenido y anuncios, además de ofrecer funciones de redes sociales y analizar el tráfico.

  • Almacenar y/o acceder a información en su dispositivo

    Se puede almacenar o acceder a cookies, identificadores de dispositivo u otra información de su dispositivo para los fines anteriormente indicados.

  • Anuncios y contenido personalizados, medición de anuncios y contenido, percepciones del público, y desarrollo de productos

    Los anuncios y el contenido pueden personalizarse en base a su perfil. Se pueden añadir más datos para personalizar mejor los anuncios y contenidos. Se puede medir el rendimiento de los anuncios y contenidos. Se puede obtener la percepción sobre el público que ha visto los anuncios y contenidos. Dichos datos pueden usarse para desarrollar o mejorar la experiencia del usuario, sistemas y software.

Al hacer clic en ‘Estoy De Acuerdo’ usted permitirá el uso de las cookies, identificadores de dispositivo, balizas web u otras tecnologías similares indicadas. Su configuración puede cambiarse desde el navegador de su dispositivo.

Para ciertos fines, los intereses legítimos pueden ser considerados por encima del consentimiento. Puede leer más sobre ello en nuestra Política de Privacidad y Cookies.